Wind_Speed
4 4 4 4 2 2 1 3 1 2 2 0 3 1 4 6 2 3 4 3 2 3 3 2 1 1 3 4 6 6 3 3 4 5 3 4 9 21 19 21 29 28 27 25 24 24 22 24 24 23 23 23 24 25 24 24 24 23 24 24 22 23 23 24 24 24 23 24 25 24 25 26 27 27 25 25 24 24 23 22 22 21 21 20 20 20 19 19 19 18 19 19 20 20 20 20 20
4 4 4 4 2 2 1 3 2 3 3 2 3 4 4 3 1 5 6 3 3 3 3 1 3 4 5 5 6 4 2 1 2 3 1 5 14 16 16 24 29 28 26 25 25 24 23 24 23 23 23 23 24 24 22 22 23 22 23 23 22 22 23 23 22 23 23 23 24 23 24 25 26 26 25 25 25 24 23 22 22 21 21 21 20 19 19 19 19 19 18 18 18 18 18 18 18
5 5 4 4 2 2 1 3 2 1 3 4 4 4 3 1 5 7 6 6 7 4 4 3 3 3 5 6 3 2 0 2 2 2 2 11 13 14 20 26 29 27 26 25 25 24 24 24 23 22 22 24 24 23 21 21 21 20 22 22 21 22 22 22 21 22 22 22 23 23 24 25 25 25 25 24 24 24 23 22 21 20 21 20 20 19 19 19 19 19 18 17 17 17 17 17 16
5 5 3 3 2 3 3 3 2 4 3 4 3 6 4 5 7 4 5 7 7 3 2 3 3 2 3 4 1 1 1 3 2 3 3 9 10 18 25 26 28 27 27 26 25 25 25 24 22 21 21 23 23 23 21 21 20 19 22 21 21 22 21 22 21 21 21 21 23 23 24 24 23 24 24 23 23 23 23 21 21 21 21 20 20 19 19 19 18 18 17 17 17 17 16 14 12
5 4 1 2 2 1 3 2 2 3 4 4 2 6 5 6 4 2 5 8 7 5 4 0 2 1 2 3 2 1 2 1 2 4 5 7 11 22 26 26 28 26 27 25 24 25 24 24 22 21 21 22 22 22 20 19 20 19 20 21 22 21 20 21 20 20 21 21 22 23 23 23 23 24 23 22 22 22 22 21 21 21 21 21 21 20 18 18 18 17 17 16 17 16 13 12 11
5 5 2 3 2 1 3 1 2 3 5 5 3 6 5 5 3 3 6 8 6 4 4 1 1 2 2 1 2 2 1 0 3 5 6 9 16 24 25 26 27 26 26 24 24 25 24 23 21 20 20 21 21 20 19 18 19 19 20 21 21 19 19 20 18 19 21 21 21 22 22 22 23 23 21 21 22 21 20 20 20 20 20 21 20 20 19 18 17 17 17 17 16 14 11 11 11
5 3 2 3 1 1 3 2 4 4 5 6 4 6 6 3 3 4 6 7 5 1 2 1 1 2 1 1 1 2 4 1 2 4 9 14 21 25 25 25 25 25 24 24 25 25 24 22 21 20 20 20 20 20 19 18 19 19 19 20 20 19 19 19 18 19 21 20 21 22 22 22 23 21 19 20 20 19 18 18 18 18 19 20 19 19 19 18 18 18 17 17 14 12 11 11 11
5 2 1 3 1 2 3 2 3 4 4 5 4 7 9 7 4 5 4 3 4 3 1 0 2 3 1 2 1 5 10 4 2 7 14 18 23 24 24 24 24 24 23 23 24 24 23 22 21 20 20 20 20 20 19 19 19 18 19 19 20 20 19 19 18 19 21 20 20 21 21 22 22 20 18 19 18 18 17 16 17 18 19 19 19 19 19 19 18 18 17 15 13 12 11 11 11
3 1 1 2 2 0 1 2 4 4 5 5 6 8 10 9 4 4 4 3 4 3 3 2 3 2 1 4 1 4 9 6 7 12 17 21 24 24 22 23 23 23 22 21 23 23 23 22 21 20 20 20 20 19 19 19 19 18 18 18 19 20 19 18 17 18 20 20 20 19 19 20 20 20 19 18 17 17 16 15 16 17 18 20 20 20 19 19 18 17 16 14 13 12 11 10 10
3 2 2 1 2 1 3 2 4 3 6 5 7 10 10 9 4 5 5 5 4 3 3 2 4 2 2 3 2 3 4 7 14 17 18 23 23 23 22 21 22 23 22 22 23 23 22 21 21 21 20 20 20 19 18 18 20 18 17 17 17 19 19 18 17 18 20 20 20 19 18 19 19 19 19 17 16 16 14 14 15 16 18 21 21 21 20 19 18 16 15 14 14 12 11 10 10
2 2 2 2 2 2 3 3 5 5 6 5 7 11 10 7 3 4 5 4 4 4 3 1 3 2 4 2 1 2 5 9 14 19 20 23 23 23 22 20 21 22 22 23 24 23 22 20 20 21 19 20 20 20 19 18 19 18 18 18 18 19 18 18 18 19 20 20 19 19 19 19 18 17 17 16 15 15 14 13 15 16 18 20 22 22 20 19 17 16 15 15 14 12 11 10 10
2 1 4 3 2 3 3 3 5 5 7 5 7 8 3 3 4 5 5 4 4 4 3 2 3 3 4 1 1 3 8 8 11 19 21 22 23 22 21 21 21 21 22 23 24 23 23 21 20 20 19 20 20 20 19 19 19 18 18 18 18 18 18 17 18 19 20 20 19 19 19 19 17 16 16 15 14 14 14 14 15 15 16 19 22 22 20 18 17 16 15 15 14 12 10 10 11
3 2 5 2 3 3 3 2 4 4 6 4 5 6 1 3 4 6 6 3 5 4 3 4 4 4 4 0 1 4 6 7 13 19 21 22 21 20 20 20 20 20 21 23 24 24 23 21 20 20 19 19 20 20 19 19 19 17 17 18 18 18 18 17 18 19 19 19 19 19 19 18 16 15 15 14 13 13 14 14 14 15 15 18 21 22 20 19 17 16 15 14 13 12 11 11 12
3 3 4 2 1 2 3 2 3 2 4 5 3 6 3 1 3 4 7 5 3 4 1 2 5 3 2 0 1 3 5 11 16 18 20 21 20 19 19 19 19 19 20 22 23 24 24 22 21 20 19 19 20 20 19 19 18 16 16 17 17 17 17 17 18 18 18 18 18 18 19 17 16 15 14 13 12 13 14 14 14 15 15 16 20 22 21 19 18 16 14 13 13 13 12 13 14
3 2 4 2 0 1 2 3 2 2 4 5 3 5 5 2 2 4 5 5 1 2 2 3 2 0 1 3 2 3 10 16 18 18 19 19 19 18 17 18 18 19 20 20 22 23 24 23 22 21 20 20 19 18 18 18 17 16 16 16 17 17 17 17 16 16 16 17 16 18 18 16 15 14 14 13 12 12 13 14 14 15 15 16 20 22 21 20 18 15 12 13 14 14 14 15 16
3 3 4 1 1 2 3 3 2 2 5 6 3 5 6 5 3 2 2 4 3 2 3 2 2 2 3 4 3 10 19 20 19 19 19 19 17 16 15 16 17 19 20 20 21 22 23 23 22 21 20 19 18 18 17 17 16 15 15 16 16 16 16 17 16 15 15 15 15 15 15 15 14 14 14 13 12 11 12 13 13 14 15 15 18 21 21 20 18 15 12 13 15 15 16 16 16
2 4 3 1 2 3 3 3 3 3 5 6 5 7 5 6 3 1 2 4 6 4 3 2 3 2 3 2 8 23 25 21 21 20 20 19 17 15 15 16 18 19 20 20 21 21 22 22 21 20 18 18 17 16 16 16 15 14 14 15 15 15 16 17 16 16 15 15 14 14 14 14 14 14 14 12 12 12 12 13 13 14 14 15 17 19 20 19 17 15 12 13 14 16 17 16 15
2 3 2 1 3 4 5 6 5 2 4 6 7 6 2 3 1 0 2 7 4 4 4 3 4 5 3 7 18 28 26 22 21 19 18 18 16 15 15 19 19 18 19 19 18 19 20 19 19 18 16 16 16 15 15 16 15 14 14 14 14 14 15 17 17 16 16 16 15 14 14 14 14 14 13 12 12 12 12 12 13 13 13 14 16 18 18 17 17 15 13 13 13 16 18 17 15
2 3 2 4 5 4 5 6 5 2 4 7 9 5 2 3 3 1 2 3 3 3 2 4 6 6 8 12 21 25 24 21 18 17 15 15 16 16 16 17 17 15 15 17 17 17 18 17 16 15 15 15 15 14 15 17 16 15 15 15 15 15 15 17 17 17 17 17 16 15 15 14 14 13 13 12 11 12 12 12 13 13 13 13 15 17 17 16 16 16 15 13 13 15 17 17 15
3 3 2 6 5 5 5 5 6 6 5 8 9 3 2 6 3 1 3 4 2 2 3 3 4 4 8 9 15 20 21 19 17 17 14 15 18 17 13 13 15 17 14 14 16 16 16 16 15 15 14 15 15 15 16 18 17 16 16 16 16 16 16 16 16 16 17 17 16 15 15 15 14 13 13 12 11 11 11 12 13 13 13 13 14 16 16 15 15 16 15 13 12 13 15 15 14
2 3 4 6 3 4 5 6 8 8 5 5 7 4 3 6 2 2 6 5 3 4 5 5 7 9 11 9 11 16 17 16 17 17 15 16 15 11 12 14 16 20 16 13 13 13 14 16 16 16 15 15 16 16 18 19 18 16 16 16 17 16 15 16 16 16 16 16 15 15 15 15 14 14 13 13 11 11 12 13 14 14 14 13 13 14 15 14 14 15 14 13 12 13 14 14 14
2 2 5 6 3 4 6 5 7 4 4 3 4 5 3 2 1 2 7 5 4 4 2 5 10 12 13 11 12 14 13 13 14 16 15 14 13 13 16 16 17 20 19 17 15 13 15 18 18 17 17 17 16 16 18 18 16 16 16 15 17 17 15 15 15 15 15 14 14 14 14 14 14 14 14 13 12 11 13 13 14 14 14 14 13 13 13 14 14 14 14 13 12 13 13 13 13
2 3 2 6 5 6 5 3 6 2 2 4 2 4 4 1 1 0 4 5 5 3 1 8 10 12 15 13 13 13 13 13 13 15 16 15 17 19 18 16 17 21 24 26 24 22 23 21 21 19 17 17 16 16 17 17 15 16 17 15 16 16 15 15 15 15 14 13 13 14 14 14 14 14 14 13 13 13 13 13 13 14 14 14 14 13 13 13 14 14 13 12 12 11 11 12 12
4 4 4 5 6 8 7 5 8 6 6 8 2 5 7 2 1 1 2 5 3 4 4 10 11 13 16 13 13 13 13 13 13 15 16 18 21 18 17 17 19 22 24 28 28 28 27 22 22 19 16 16 16 16 17 17 16 17 17 15 15 15 15 15 15 14 14 13 14 15 14 13 13 13 13 13 14 14 13 13 13 12 14 15 15 14 13 13 13 14 13 12 11 10 9 9 10
4 6 4 3 5 7 7 7 9 8 7 7 4 8 9 4 1 2 3 6 4 7 8 11 13 13 13 12 12 12 11 11 11 12 14 17 16 13 17 19 20 24 24 26 26 26 26 22 20 19 16 16 16 17 18 18 17 18 18 16 15 14 15 16 15 15 15 15 16 15 14 13 13 13 12 12 14 14 14 13 12 12 13 15 16 15 13 12 12 13 12 11 10 9 8 7 8
5 7 5 4 6 7 6 7 9 6 5 2 3 9 9 4 2 2 3 3 2 8 10 10 13 13 11 11 12 11 11 9 8 10 14 15 11 12 19 21 22 27 27 27 25 24 25 22 21 21 19 18 17 17 16 18 18 18 18 18 16 16 16 16 17 17 17 16 16 15 15 14 13 12 12 11 12 13 13 13 12 13 13 15 17 16 13 12 12 11 11 11 9 8 7 6 7
5 6 5 7 8 8 3 6 8 3 4 4 4 9 6 5 2 3 4 3 6 10 9 8 11 12 12 10 10 10 8 8 9 11 12 9 9 11 16 17 20 23 22 23 22 22 25 24 23 22 22 21 20 19 19 20 19 17 18 17 16 15 16 16 17 19 18 18 17 16 16 14 12 12 11 11 11 12 13 12 12 13 13 14 17 16 14 13 12 11 11 10 8 7 6 7 8
3 5 3 7 6 7 4 6 7 1 4 6 8 6 3 5 0 4 6 1 6 10 9 7 10 11 11 11 9 7 5 8 10 11 10 9 12 13 12 9 8 9 6 10 17 21 24 24 23 22 22 22 22 21 22 22 20 19 20 19 17 15 15 16 18 19 20 19 18 17 17 15 13 12 12 11 11 12 13 12 12 12 13 14 16 16 15 13 12 11 11 10 8 6 7 9 9
2 4 2 7 6 6 6 5 5 5 3 5 9 1 4 2 3 6 6 1 6 10 9 7 8 9 9 9 8 5 5 8 9 9 10 12 16 18 16 13 15 14 11 12 17 21 24 26 25 23 22 22 22 22 22 22 21 21 21 20 17 15 16 17 19 20 20 19 18 18 17 15 14 13 13 12 12 13 13 12 12 12 13 14 15 16 15 14 12 12 11 10 8 7 7 10 11
1 2 2 4 6 6 6 2 1 5 3 5 8 1 6 5 7 9 6 4 8 8 8 7 7 7 8 8 7 4 6 7 7 8 11 13 17 19 20 21 25 25 22 21 19 20 23 26 27 25 24 23 22 22 23 23 23 22 19 18 17 16 18 19 20 21 20 19 19 19 18 16 15 14 13 13 13 14 14 14 13 12 12 13 13 14 14 13 12 11 11 10 9 8 8 10 11
1 1 1 2 1 4 7 2 3 5 2 4 7 2 5 5 8 9 5 6 9 8 7 7 6 7 7 7 6 5 5 6 8 10 11 13 17 21 23 25 26 25 23 21 20 22 24 27 29 29 30 29 27 25 25 25 23 22 20 19 18 18 19 20 20 21 21 20 20 20 18 18 17 15 14 14 14 15 16 15 14 13 12 13 13 13 12 12 11 11 12 11 10 9 9 10 10
2 2 2 3 2 5 8 3 3 4 1 2 6 2 5 5 8 8 4 5 7 8 8 8 7 7 7 6 5 5 4 5 8 11 10 13 17 21 23 24 23 21 20 19 22 25 26 28 30 31 30 28 26 25 27 28 26 24 23 22 19 20 21 21 22 22 22 21 20 20 19 18 17 16 15 15 15 16 17 16 14 13 13 13 13 12 12 12 12 12 11 11 11 11 11 11 11
3 2 2 1 2 3 4 2 1 2 1 3 3 3 2 3 6 7 2 6 6 7 7 7 7 6 6 5 4 5 4 3 6 9 9 12 16 20 22 22 19 17 17 21 25 28 30 31 31 30 26 22 23 26 29 29 27 26 25 23 21 22 23 22 22 23 22 21 21 20 20 19 17 17 16 16 16 17 18 16 14 14 13 13 12 12 12 12 12 12 12 11 11 12 13 13 11
3 2 2 2 2 1 2 2 3 3 4 1 1 2 4 4 6 7 4 1 3 4 4 4 4 3 4 4 4 5 5 5 6 8 7 9 12 13 15 16 15 16 19 23 26 28 29 29 29 27 24 23 25 29 29 27 25 24 24 24 23 23 23 23 23 23 22 21 21 22 21 19 18 17 17 17 17 17 17 15 14 14 14 13 12 13 13 12 12 12 13 12 11 12 14 14 13
3 2 3 1 1 1 3 3 2 4 4 0 0 3 4 5 8 9 9 6 4 3 2 3 2 2 3 3 5 5 5 6 7 7 6 5 8 8 10 14 16 17 20 21 22 23 22 22 22 21 21 22 24 26 24 22 22 21 21 22 24 24 24 24 23 22 21 20 21 21 19 17 17 17 18 18 18 18 18 16 14 15 15 15 14 14 13 13 12 13 13 13 13 13 13 14 14
7 4 5 4 1 3 5 5 5 1 3 2 5 4 2 7 9 10 10 6 7 6 5 4 3 1 1 0 3 4 6 7 5 5 4 5 7 9 11 14 17 17 18 18 19 20 19 19 19 18 17 16 19 22 23 24 24 23 22 23 24 25 25 24 23 21 20 20 21 21 19 18 18 19 19 20 19 19 18 17 16 16 17 17 17 16 14 13 14 14 14 15 15 13 12 13 14
7 5 5 4 1 3 5 6 5 3 4 4 4 4 8 7 7 9 8 8 11 9 6 4 2 2 2 1 3 5 5 3 1 4 5 6 7 9 10 11 14 16 17 18 19 20 20 19 19 17 14 13 16 22 25 27 26 23 24 26 26 26 25 22 20 19 19 21 20 21 21 20 20 21 20 21 20 19 19 18 17 18 19 19 18 17 15 14 15 15 15 16 16 16 15 13 15
6 5 5 3 2 4 6 5 5 1 3 3 4 11 8 5 6 8 9 11 12 9 7 5 3 3 3 3 3 3 2 1 2 5 7 8 7 9 10 10 12 13 13 15 17 19 20 21 21 17 14 14 16 20 25 26 24 21 22 25 28 27 25 21 18 18 19 20 19 20 23 22 21 21 21 21 20 18 18 17 18 20 20 20 18 16 15 15 16 16 17 17 16 16 16 16 19
5 4 4 1 2 3 6 5 5 3 3 1 7 12 6 5 4 8 11 9 6 7 7 7 6 3 2 4 3 1 1 1 3 5 7 8 8 9 10 11 11 10 10 12 15 18 20 22 23 19 16 15 16 19 22 21 20 20 18 18 23 23 21 19 17 18 20 20 19 22 23 22 21 21 21 22 20 18 18 18 19 21 21 20 19 17 16 16 16 17 19 19 17 17 17 19 21
4 4 4 1 3 1 3 4 4 4 3 3 8 10 6 6 5 7 9 6 6 8 7 8 8 6 3 2 4 4 5 4 4 4 5 6 6 8 9 9 8 7 9 11 13 15 16 18 20 20 18 18 18 19 19 17 15 17 15 14 17 18 15 15 16 17 17 17 20 23 21 20 21 21 20 20 19 18 19 19 21 23 22 20 19 19 18 18 18 19 20 21 20 20 18 20 19
1 3 5 3 3 3 4 4 5 4 3 3 7 7 5 6 7 7 6 6 10 11 10 12 11 9 6 4 3 2 2 2 4 5 5 5 6 7 6 7 6 7 9 11 13 12 11 13 15 18 19 19 19 18 16 15 13 13 15 13 14 15 12 14 17 16 15 16 21 23 19 18 19 19 19 18 16 16 18 19 22 24 21 19 19 19 19 19 19 20 21 22 22 21 20 21 18
1 3 6 7 6 5 5 3 5 5 3 1 4 6 3 6 7 7 6 7 10 10 12 14 12 11 9 7 6 5 5 3 2 4 6 6 6 5 5 6 6 8 9 10 12 12 12 13 14 15 16 16 17 16 14 13 11 12 18 19 17 16 15 17 20 19 18 20 22 21 18 17 17 16 16 16 16 17 18 19 22 22 19 19 19 18 19 19 19 20 22 23 23 22 21 22 19
1 5 8 8 6 4 5 2 2 2 2 1 3 6 2 4 6 7 5 6 9 10 14 14 11 11 9 8 7 7 7 6 3 4 5 4 2 1 1 5 6 8 10 10 11 11 12 13 12 13 13 12 14 15 14 13 11 15 21 22 20 19 18 18 20 21 22 22 21 19 17 15 15 15 15 16 17 18 18 19 20 19 18 18 19 19 19 18 19 20 21 22 23 22 22 21 21
3 6 8 8 6 6 5 3 3 1 3 1 4 5 5 0 3 6 5 5 10 12 14 13 11 11 10 9 9 9 9 8 6 4 3 4 7 8 5 4 6 8 9 9 8 9 11 11 10 11 12 11 12 13 13 13 14 19 22 22 19 18 18 17 19 21 22 21 20 19 16 14 15 16 16 17 18 18 17 18 18 18 17 17 18 19 19 18 19 20 21 22 23 23 22 20 22
5 5 7 8 6 6 5 5 3 1 0 2 6 5 5 1 3 5 5 6 10 12 12 12 11 11 10 10 11 10 10 9 9 8 7 9 11 11 8 5 5 5 6 6 5 7 10 11 10 9 10 10 11 12 12 12 16 20 22 22 18 15 15 14 16 18 19 18 19 19 18 17 19 19 18 18 18 17 16 17 17 17 16 16 17 18 19 18 19 21 21 22 23 24 22 20 22
5 5 7 4 5 4 4 5 3 3 3 3 6 4 4 1 3 3 3 5 7 8 8 8 10 10 9 10 10 10 9 9 9 9 10 12 12 10 8 7 7 6 4 5 5 6 9 11 11 8 8 9 10 12 11 12 15 17 17 18 16 13 12 12 13 15 16 17 18 19 20 20 21 20 19 18 17 17 16 16 16 17 16 16 17 18 19 19 20 21 20 21 22 22 21 20 20
6 7 6 6 5 5 3 3 3 4 2 5 5 3 4 2 2 3 3 3 3 4 5 6 8 9 9 9 9 9 9 8 9 9 9 12 13 12 11 10 11 11 10 9 8 7 7 9 10 9 8 7 8 11 11 10 13 13 12 12 12 11 11 11 12 13 14 14 15 18 20 20 19 19 19 18 18 17 17 16 16 16 16 17 17 18 19 19 20 20 19 20 21 21 20 20 19
6 5 5 5 3 4 4 4 4 4 2 5 4 4 5 3 1 2 4 4 4 4 4 6 7 9 8 8 9 9 9 8 8 8 8 10 12 13 14 13 13 13 12 13 13 12 9 8 7 8 8 7 7 10 11 11 11 12 11 9 9 10 10 11 11 12 13 13 15 18 19 19 19 18 19 18 18 18 17 17 17 16 17 18 18 19 18 18 19 19 20 20 21 21 20 20 20
5 5 6 6 1 2 2 2 1 2 3 3 4 3 4 2 0 2 3 4 5 4 5 6 7 9 9 9 9 9 9 9 9 8 8 8 9 12 14 13 14 15 14 14 15 15 14 12 11 11 11 10 9 10 12 13 13 13 12 10 10 12 13 14 14 15 16 17 18 19 20 20 20 20 20 20 19 18 18 18 18 18 18 18 19 18 17 18 19 19 20 20 20 21 21 21 21
5 6 6 6 3 3 2 1 0 1 2 2 5 3 2 1 1 2 3 5 5 5 7 8 8 9 9 8 9 9 9 9 8 8 9 9 11 14 16 16 16 16 17 18 18 16 15 13 14 15 14 12 11 12 13 14 15 15 14 12 13 15 17 18 19 19 19 20 20 18 21 23 22 21 21 20 19 18 19 18 18 18 18 18 19 18 17 18 19 20 20 20 20 21 21 21 20
5 5 6 6 4 5 4 3 3 2 1 3 5 3 2 2 1 0 1 4 6 7 8 8 8 8 7 8 10 10 10 9 8 9 9 10 13 16 18 19 19 18 19 20 20 18 15 13 13 15 16 15 14 14 15 15 14 15 15 15 16 17 18 19 20 21 21 21 20 18 20 24 23 21 20 19 18 18 18 18 18 18 17 18 19 18 18 18 19 21 21 20 20 19 20 20 19
2 3 6 4 5 5 3 3 5 5 3 2 3 1 1 1 1 1 0 4 7 8 8 8 8 8 8 9 9 9 9 9 9 9 9 12 16 18 19 20 20 20 21 21 20 18 16 15 14 14 15 16 16 16 15 14 12 12 12 15 18 20 20 21 22 23 22 21 20 19 19 21 22 20 19 18 17 17 18 19 18 18 17 18 19 18 18 18 19 21 21 20 19 18 18 18 17
2 3 4 4 4 8 6 2 2 4 4 1 2 1 0 1 1 1 1 5 8 8 8 8 8 9 10 9 8 8 8 8 9 9 9 11 15 16 17 18 19 21 21 20 19 18 17 16 17 17 16 17 17 16 14 14 13 12 11 14 20 24 25 25 24 25 23 19 18 18 17 18 20 19 19 19 18 18 19 19 18 18 18 18 19 19 19 18 19 21 21 20 19 18 17 16 16
5 3 5 3 3 5 5 3 3 4 3 0 2 1 2 1 1 1 2 6 8 7 8 9 9 10 9 8 8 9 8 8 9 10 10 12 14 16 18 18 19 19 20 19 18 18 17 18 19 19 19 18 16 14 13 15 17 16 14 15 19 25 27 27 25 24 21 16 15 15 15 17 19 19 19 19 19 19 19 19 19 19 18 18 18 19 19 19 19 19 20 19 18 17 17 16 15
4 6 5 4 4 2 2 3 2 3 3 1 0 2 1 2 2 2 4 7 8 7 7 9 9 9 8 8 9 10 10 9 9 9 9 11 14 16 18 19 19 20 20 19 20 20 20 21 21 20 19 18 15 13 14 18 20 19 19 17 17 22 24 23 21 18 15 13 14 15 16 18 20 19 20 20 20 20 20 19 19 19 18 17 17 18 18 19 19 19 19 18 18 18 17 16 15
5 5 3 2 3 4 3 3 3 4 4 2 2 2 2 4 3 2 4 7 8 7 7 9 9 9 8 7 8 9 9 8 8 8 9 10 13 14 16 17 18 19 20 21 21 22 23 24 23 22 20 20 18 16 17 18 17 17 18 15 14 18 19 17 17 17 17 16 16 17 18 20 20 20 21 22 21 21 20 20 20 19 18 18 17 17 18 18 18 19 19 19 18 18 17 16 14
4 3 2 1 2 3 3 2 2 4 5 3 3 2 4 4 3 2 3 6 7 7 8 8 9 9 8 8 8 7 7 8 8 8 8 10 13 14 15 16 18 19 21 22 22 23 24 25 25 25 23 22 22 21 21 20 18 14 14 15 16 18 17 15 16 18 19 18 17 18 19 20 20 21 22 22 22 22 21 20 20 20 19 19 18 18 18 18 18 19 19 19 18 18 17 16 15
5 4 4 4 4 4 4 2 1 3 4 4 5 3 4 3 0 1 3 5 7 8 9 9 9 9 8 8 8 7 7 8 8 7 8 10 12 14 14 17 19 19 21 23 23 24 26 26 26 26 25 25 25 24 22 21 19 15 12 15 17 17 17 17 17 17 17 17 18 19 20 20 21 22 23 23 24 24 23 22 21 21 20 19 19 19 19 19 19 20 20 19 18 17 17 16 15
Wind_Direction
111 106 105 116 121 124 17 60 89 324 88 277 266 212 254 233 243 290 276 291 291 274 261 255 252 55 98 126 158 166 144 160 163 135 204 264 144 151 156 157 156 154 155 156 157 158 160 161 158 156 155 154 151 148 145 143 143 140 139 136 132 131 130 130 132 130 129 128 127 126 123 121 119 118 118 116 115 112 111 113 115 114 114 115 114 110 107 105 101 99 100 100 97 98 100 102 103
122 118 110 121 88 107 238 74 102 322 60 289 266 179 251 272 227 240 239 245 229 258 323 25 108 82 69 92 125 132 95 48 149 149 204 131 136 151 158 158 156 153 153 154 157 159 161 160 158 156 156 156 153 149 144 142 142 140 138 135 132 131 131 133 132 131 130 128 126 125 124 123 121 120 119 117 115 114 113 113 114 116 118 118 116 111 109 106 103 102 102 102 100 100 102 104 107
134 127 118 133 71 54 72 50 102 71 116 243 269 225 252 259 224 227 234 247 245 270 328 318 48 55 48 48 46 86 167 335 124 129 115 138 143 157 160 158 156 153 152 154 159 161 161 160 158 156 156 156 153 147 142 142 140 138 137 133 131 132 132 133 131 131 130 128 128 127 127 124 122 122 120 118 117 115 114 115 116 117 119 120 118 114 111 108 106 106 104 104 101 100 103 104 105
140 127 123 146 63 28 66 48 143 124 161 223 265 255 225 214 229 239 261 266 265 273 301 314 12 8 62 85 46 69 233 299 125 126 145 162 166 159 158 156 154 153 152 156 161 162 161 159 157 154 155 154 152 147 142 143 139 137 136 132 133 132 132 133 132 131 130 130 130 128 127 125 123 122 121 119 118 116 117 119 118 118 118 120 120 117 114 111 110 108 107 106 104 103 102 100 96
140 133 129 120 91 43 102 85 119 131 204 192 230 260 225 222 236 298 280 280 277 238 215 120 38 301 64 119 163 133 228 294 125 158 159 168 166 157 156 154 153 152 153 157 161 163 160 157 156 153 153 151 151 147 144 145 139 138 137 133 133 132 133 133 131 131 131 132 130 128 127 126 125 123 122 122 122 123 125 124 123 124 125 125 122 118 115 114 114 111 111 110 108 106 100 92 86
135 132 71 52 94 152 120 143 165 210 228 169 201 260 239 227 229 284 295 292 284 215 195 140 198 205 85 18 141 138 237 182 147 183 172 154 158 157 155 155 154 153 154 158 162 163 157 156 156 152 153 151 150 145 143 144 138 138 137 133 133 132 133 132 132 132 131 131 130 129 129 128 126 124 126 128 129 129 129 127 127 129 129 129 124 120 119 119 117 116 117 115 111 105 95 85 80
137 134 24 59 39 31 116 179 197 233 243 177 202 269 274 255 218 292 330 321 321 67 97 76 202 127 118 299 126 25 10 130 155 169 172 152 154 157 155 155 153 153 155 160 163 161 156 157 156 152 151 149 148 145 143 143 137 138 137 135 135 134 135 134 134 134 132 132 132 131 131 130 128 127 128 131 131 128 129 128 127 128 128 129 126 123 123 122 121 122 122 118 112 102 91 83 78
139 149 27 101 56 9 112 216 229 221 246 218 236 272 279 280 269 307 323 315 317 320 9 349 27 78 274 347 103 344 21 49 130 149 160 150 153 154 154 155 151 153 157 161 162 158 155 156 155 151 149 147 148 148 146 143 137 138 139 138 137 136 136 136 135 135 135 134 134 134 133 132 130 129 128 130 129 127 130 128 127 128 129 131 132 129 126 126 126 126 125 119 111 100 90 82 80
103 69 83 104 136 341 46 285 264 234 256 270 273 267 270 275 269 269 262 262 272 262 208 198 26 66 249 24 27 315 23 65 128 139 149 148 152 152 154 155 153 155 157 161 159 156 156 157 155 152 151 150 150 149 148 145 139 141 142 139 139 138 138 139 138 138 139 137 136 137 135 134 132 130 129 129 127 129 131 128 126 128 131 135 137 135 133 132 130 130 126 119 111 100 89 82 83
57 28 136 99 131 235 308 279 263 253 255 264 273 267 266 269 237 207 236 265 242 200 206 138 60 88 117 51 348 327 37 116 131 133 144 149 151 152 155 156 157 157 158 159 156 158 158 157 156 154 154 152 152 149 149 147 142 145 144 142 144 143 144 144 142 143 144 141 138 137 136 135 132 129 129 130 131 132 131 128 125 127 133 137 140 140 140 137 135 132 125 120 112 100 91 85 88
46 351 108 93 103 206 246 257 270 268 275 297 286 270 264 261 221 209 221 238 221 162 206 85 84 132 83 67 4 39 124 130 130 136 146 151 152 154 155 157 160 158 158 157 157 160 157 157 158 156 156 153 153 150 150 151 147 150 152 151 151 149 148 146 144 146 146 143 140 138 137 133 130 130 132 134 135 132 129 126 124 125 131 139 143 144 143 140 136 132 127 121 111 102 95 88 94
104 320 72 104 160 195 211 241 269 281 300 309 282 278 274 196 166 200 199 197 182 142 214 200 152 134 87 41 22 100 122 122 134 140 148 151 152 155 156 158 161 160 159 157 158 160 157 158 159 157 156 156 156 154 154 155 154 156 158 157 156 155 152 146 146 147 147 145 144 142 139 133 132 136 136 137 135 132 128 125 122 121 127 139 146 146 145 141 136 133 129 120 111 106 98 94 103
128 155 94 135 194 174 179 222 272 311 314 278 251 280 14 148 195 192 162 133 132 135 247 199 147 93 95 299 111 131 120 131 143 144 150 150 151 155 155 158 160 161 159 158 160 160 159 160 161 158 157 159 160 159 160 160 161 160 159 160 160 159 152 147 147 148 148 148 147 144 139 135 137 139 139 139 133 131 128 123 121 119 124 137 145 147 145 141 137 135 129 119 113 109 101 101 111
152 150 123 182 213 144 172 233 281 307 285 266 262 295 313 191 217 166 122 95 122 158 245 163 141 96 95 119 135 153 136 146 147 147 151 148 150 151 152 156 157 159 160 161 162 161 161 162 164 161 159 164 165 164 166 165 164 162 162 164 162 159 154 148 146 147 148 148 148 145 139 137 140 140 141 141 133 130 128 124 121 120 122 134 143 145 144 141 138 137 130 118 112 109 106 108 113
170 128 102 135 7 312 212 220 232 169 256 267 285 316 330 355 118 108 115 127 200 199 122 88 114 63 145 171 217 166 148 152 148 148 148 145 148 147 151 154 156 160 162 164 164 164 163 164 167 165 165 167 166 167 168 166 164 164 164 166 164 162 158 151 147 147 148 149 149 146 142 139 142 144 144 141 134 130 129 126 124 124 124 133 142 144 143 141 140 139 130 114 110 111 110 111 115
147 103 73 95 215 250 217 209 182 173 258 258 289 1 360 330 62 86 220 148 145 145 109 72 27 65 151 193 193 143 147 151 145 144 141 139 141 142 151 154 159 164 166 168 165 167 167 167 170 168 168 168 167 167 166 164 164 165 166 168 167 165 162 157 151 149 150 149 148 147 144 142 145 147 144 142 139 133 133 131 128 128 127 133 142 144 143 143 142 142 131 113 110 114 114 114 117
79 85 75 55 200 209 202 204 179 192 267 275 321 24 24 312 360 107 269 83 120 122 63 51 18 52 165 202 141 140 145 147 141 137 131 133 135 137 152 161 165 167 169 170 167 170 169 169 171 169 169 169 169 167 166 165 163 167 170 171 169 168 165 161 156 153 154 151 149 150 148 149 152 149 144 146 143 137 137 136 133 132 131 134 142 145 143 145 145 142 132 115 111 115 118 119 122
76 103 127 194 198 205 186 193 198 206 284 287 321 360 3 285 319 184 24 34 62 85 41 47 32 28 74 107 128 137 140 139 135 127 120 125 133 143 162 171 170 167 166 169 169 171 171 171 171 169 168 171 171 167 169 166 166 173 172 172 172 170 164 161 161 160 158 157 158 159 156 158 158 152 150 151 145 140 142 141 139 136 136 137 143 147 146 147 147 142 133 120 114 117 123 126 129
135 121 145 215 207 216 196 198 219 230 273 293 311 329 322 250 196 134 77 45 44 90 29 41 50 52 72 101 122 128 127 127 125 120 116 125 146 164 171 166 162 160 160 166 170 169 171 173 171 171 168 172 174 170 173 170 172 179 173 174 175 169 165 165 166 163 163 164 166 165 160 160 160 158 160 157 151 145 144 146 146 143 142 143 146 149 147 148 148 142 135 128 119 118 125 130 133
178 128 164 236 222 242 234 213 232 238 263 299 298 322 16 277 253 61 133 106 47 177 197 83 85 111 101 103 111 115 118 119 125 132 136 151 165 171 157 138 143 155 158 164 171 168 170 173 172 173 172 175 179 176 176 176 179 182 177 178 176 170 171 172 169 165 167 171 171 168 161 159 160 162 163 163 160 150 149 153 154 152 151 150 151 153 150 147 148 143 137 134 124 118 124 128 130
191 150 186 237 205 244 252 211 236 251 244 265 286 327 352 276 299 80 124 90 339 254 218 168 152 146 127 114 109 117 124 130 142 152 156 162 166 155 137 134 142 154 152 147 159 163 165 173 174 175 178 182 186 184 179 180 182 183 180 181 176 174 178 176 173 172 173 175 173 169 163 160 162 163 165 168 168 160 159 161 160 160 160 157 157 156 151 147 148 146 141 137 126 118 119 123 126
189 208 198 223 183 240 262 218 234 240 204 220 290 319 315 271 2 98 121 123 246 252 219 153 147 147 135 124 124 133 141 149 159 165 163 153 152 161 162 150 140 150 151 146 154 165 170 174 178 181 184 187 190 187 180 181 184 185 184 183 178 179 185 181 180 180 179 178 175 174 169 165 166 169 174 176 177 174 169 166 164 164 166 165 162 160 155 150 149 146 145 139 127 121 117 120 125
210 277 228 232 225 242 272 274 263 292 322 275 252 301 312 34 5 275 136 170 231 303 71 131 131 134 131 130 138 148 158 168 174 170 164 153 160 175 170 148 145 160 164 165 169 177 181 177 179 183 184 186 189 186 181 183 188 190 189 186 183 186 189 187 188 185 182 183 182 183 178 172 174 177 182 182 184 183 173 169 168 168 172 173 170 165 160 157 154 148 145 140 131 126 120 121 127
202 254 274 250 231 239 263 284 286 309 305 277 288 327 304 290 346 28 229 253 317 18 82 114 120 126 130 137 147 158 170 177 178 169 165 165 171 174 160 153 165 174 173 174 175 177 180 178 179 180 180 186 189 187 186 187 192 196 192 189 187 193 197 196 195 187 184 191 193 191 187 182 183 184 186 184 187 189 179 173 175 175 176 180 179 172 167 165 162 154 146 142 138 134 126 127 134
204 226 256 261 236 245 267 281 286 296 283 279 329 313 285 272 295 140 228 279 355 72 98 108 119 128 134 146 154 166 178 176 171 161 160 167 167 154 158 167 174 180 182 179 175 175 175 174 176 177 181 191 193 193 192 190 196 199 194 191 190 198 207 205 199 192 190 198 201 198 195 195 194 192 190 184 185 190 186 183 187 190 187 187 185 180 175 173 172 164 153 150 149 142 134 136 144
216 208 232 257 266 270 282 281 277 282 270 285 333 287 282 299 271 236 245 227 107 91 105 116 125 132 141 153 164 174 178 169 158 150 157 166 150 135 159 171 179 187 189 182 176 173 170 171 175 179 184 189 191 195 197 197 200 198 193 193 194 201 211 211 202 197 198 205 207 204 204 207 204 199 195 187 183 186 189 191 196 198 195 192 189 186 183 182 181 175 165 162 162 153 144 144 150
200 190 230 244 265 283 281 277 277 283 259 196 203 258 288 344 321 275 290 189 123 99 107 122 128 139 151 160 174 181 174 153 147 147 151 147 105 118 157 172 186 196 194 182 174 169 169 176 182 184 186 188 190 194 201 206 205 198 193 194 199 206 214 215 207 203 203 208 210 209 212 214 209 206 203 194 184 184 188 191 195 196 194 194 192 189 188 189 188 184 177 173 172 164 153 151 154
176 164 254 264 281 298 257 263 271 230 255 203 183 240 322 14 36 222 264 216 115 110 116 129 136 147 158 167 179 183 157 134 146 140 128 115 108 132 155 156 190 223 230 186 177 176 179 187 191 190 190 193 194 197 202 204 203 198 196 196 202 212 217 215 211 209 208 208 210 211 216 217 213 214 211 202 190 186 189 190 192 190 188 189 188 188 191 192 190 189 183 178 176 169 155 152 156
170 155 248 290 339 325 251 253 252 174 217 185 152 268 314 288 241 250 266 184 114 116 127 137 145 155 162 174 184 173 128 132 150 135 131 139 140 155 161 160 188 209 223 212 195 189 189 193 195 195 196 200 201 203 205 203 201 201 200 200 201 207 212 213 213 214 213 210 211 214 219 218 216 218 216 208 199 193 191 190 189 185 183 184 184 183 186 188 188 187 183 180 177 167 153 152 158
212 141 151 302 0 330 267 275 220 164 180 161 137 249 273 263 267 266 258 159 122 118 138 146 152 162 167 181 182 157 124 139 162 152 159 162 153 163 172 182 195 197 203 208 199 190 193 196 199 199 199 204 206 206 205 201 202 203 202 205 206 206 207 211 216 218 217 214 214 217 220 219 218 219 218 214 207 200 195 192 189 187 188 188 184 182 183 184 185 186 184 178 169 164 160 161 169
209 154 82 358 37 284 292 312 145 150 176 148 124 218 259 271 267 264 252 169 141 135 155 158 163 169 174 187 173 149 133 149 175 171 170 173 170 174 182 195 200 195 197 202 196 194 198 201 203 203 202 204 204 203 201 200 203 204 202 205 207 211 211 212 218 222 220 218 219 221 220 219 218 218 218 218 213 205 198 195 193 195 197 195 190 188 186 185 186 185 185 179 167 167 171 169 176
45 148 298 350 160 262 305 303 161 155 249 89 106 199 274 279 266 278 267 184 149 147 170 168 171 175 173 181 163 146 128 142 184 191 177 168 177 183 186 196 199 193 192 195 195 199 203 206 208 208 205 202 196 196 201 203 204 202 201 204 205 212 215 215 219 222 223 223 225 225 221 218 218 218 217 218 216 208 202 199 199 202 201 197 196 195 191 187 185 181 181 186 179 176 177 173 174
1 123 213 271 160 267 304 307 263 176 93 30 92 173 269 296 289 305 247 176 147 154 182 176 170 175 167 167 158 146 139 157 205 210 190 167 179 189 189 192 192 191 196 197 198 202 206 208 210 210 206 198 194 201 206 206 206 202 201 203 206 213 215 215 218 222 224 227 230 229 224 220 219 219 217 218 218 210 206 205 206 207 203 200 201 200 196 188 185 184 181 190 196 189 181 171 163
328 47 150 215 181 230 273 296 315 59 89 22 19 185 225 275 303 331 341 154 133 158 185 174 158 151 154 159 156 145 155 193 216 217 203 181 184 190 191 191 189 195 205 207 205 206 208 208 208 208 206 203 205 210 210 206 206 205 204 204 207 214 217 216 216 220 225 229 233 231 226 225 222 219 218 219 219 215 212 213 213 209 206 208 207 204 202 195 194 198 191 189 198 196 184 171 158
174 143 124 112 351 271 263 273 274 40 41 259 281 238 246 310 331 349 350 2 36 23 35 95 108 134 171 172 147 136 165 205 220 218 204 185 182 181 188 196 198 203 210 213 211 210 209 208 207 206 206 207 208 210 207 202 204 205 205 205 207 213 216 215 211 215 223 229 235 235 233 233 227 221 220 221 222 219 218 223 220 212 212 215 211 205 203 199 194 194 193 186 186 190 184 169 153
153 151 133 126 41 272 255 260 251 82 69 209 215 222 43 14 353 352 343 10 50 22 27 71 62 46 266 49 108 132 183 210 224 212 183 160 178 192 195 196 203 210 216 217 213 214 215 212 211 208 207 206 202 207 209 206 206 203 202 204 208 213 215 215 210 210 220 230 237 240 240 240 232 222 222 225 225 222 220 225 223 215 216 217 213 208 202 197 189 186 191 188 179 173 167 158 150
128 113 100 118 135 280 264 260 268 140 131 246 210 107 57 36 0 350 344 25 38 13 17 52 56 66 41 58 133 164 189 211 174 165 163 156 178 202 204 199 203 210 218 219 215 216 218 217 216 212 211 207 200 208 215 215 210 204 201 202 206 213 215 214 208 205 219 231 237 240 240 240 235 223 221 225 226 226 225 224 220 215 217 217 215 213 205 196 190 189 189 185 178 164 155 154 151
100 112 93 81 192 262 260 254 300 62 145 283 78 82 52 20 11 6 15 34 27 7 18 25 25 99 103 116 152 180 174 73 134 158 162 164 180 199 206 205 202 206 216 219 217 217 218 220 221 218 218 215 211 216 219 218 216 213 211 208 207 212 215 215 209 205 219 231 234 239 241 240 237 225 221 224 223 225 229 225 219 217 216 215 214 210 205 195 190 194 187 178 174 165 159 160 153
88 110 104 53 240 277 286 280 329 19 130 339 76 83 43 340 360 30 34 35 23 17 34 29 20 42 100 140 149 168 169 181 185 181 169 169 186 197 203 206 200 207 223 225 219 216 217 220 223 226 226 225 222 221 220 220 222 222 226 222 213 212 211 210 210 214 223 227 228 235 237 235 235 228 222 223 222 223 228 227 224 221 216 214 211 204 201 198 193 195 192 182 172 162 162 166 161
87 112 125 227 263 319 294 289 334 12 92 123 108 91 46 348 358 39 36 26 25 26 37 41 31 12 332 199 171 182 192 195 190 185 167 165 194 203 210 215 205 211 230 235 228 220 220 224 228 231 234 235 230 222 222 230 235 231 234 234 223 217 209 201 208 223 229 227 228 231 229 228 232 231 227 227 225 221 222 225 226 223 217 213 213 207 201 200 197 194 194 190 177 162 161 172 174
89 142 137 176 235 197 222 278 331 1 53 103 111 81 25 353 8 22 10 15 30 23 28 36 28 17 0 350 338 278 225 196 176 169 156 163 195 204 215 230 230 229 234 241 238 232 230 233 238 240 240 239 232 227 233 245 248 235 227 224 220 219 210 195 197 209 220 223 228 230 227 226 229 231 231 230 227 220 218 221 221 220 219 215 214 212 206 203 201 197 195 195 188 176 169 174 181
243 221 178 188 193 202 242 303 8 32 39 340 92 82 5 324 5 15 349 17 34 25 29 32 25 23 22 15 2 352 4 24 118 147 161 174 194 198 216 239 249 248 247 252 251 248 244 242 245 246 243 236 229 231 245 252 239 220 217 212 207 207 203 195 191 192 203 217 226 227 224 225 225 224 226 226 224 221 218 217 217 218 221 219 216 214 209 205 203 202 199 197 197 191 178 174 180
204 232 195 187 165 180 245 246 74 87 179 246 81 109 153 308 354 359 340 19 37 33 33 29 26 27 25 23 19 19 24 28 65 124 162 167 135 109 263 272 277 273 271 273 271 267 260 255 252 245 240 237 234 237 247 249 221 207 214 211 206 210 209 202 197 200 208 218 225 226 223 223 224 223 223 222 222 220 217 216 217 220 221 221 219 215 212 211 208 207 204 201 201 197 186 179 180
218 232 169 160 152 173 206 148 120 222 220 310 26 96 126 87 324 325 326 22 32 30 31 24 23 28 28 30 29 34 36 33 50 80 97 58 45 46 31 321 299 287 281 282 283 277 268 268 267 251 242 245 246 241 241 239 216 203 205 205 208 223 223 209 203 209 215 220 222 219 216 216 217 221 223 220 218 217 216 217 218 220 221 223 222 219 219 220 215 209 205 204 203 201 198 192 186
237 212 144 154 156 165 159 111 100 352 22 287 339 46 102 164 284 315 345 34 30 23 24 19 19 25 30 36 36 39 42 40 45 52 55 52 49 49 47 22 344 304 280 284 295 291 275 275 281 267 250 252 254 246 235 222 209 202 202 205 214 230 227 211 205 210 215 218 217 211 209 209 209 214 219 217 216 216 216 217 217 219 223 225 224 222 222 222 218 212 206 204 204 205 208 207 198
222 147 104 99 89 81 91 102 109 41 53 242 299 18 106 213 309 348 13 37 22 10 19 15 17 29 35 39 41 41 42 45 49 50 53 55 58 60 57 41 21 3 332 313 314 310 295 288 287 275 254 252 255 254 243 216 202 202 206 214 224 228 215 201 202 210 215 215 214 212 211 210 207 209 213 214 214 216 216 216 216 220 224 225 224 221 219 219 218 215 210 207 209 210 212 213 211
149 119 76 59 50 36 44 59 88 71 9 261 283 345 103 127 325 21 39 41 18 4 23 21 19 31 37 40 45 45 44 46 49 51 52 53 55 54 51 47 36 24 9 2 6 353 326 307 295 283 268 260 258 259 254 227 208 208 215 223 230 226 210 201 201 208 217 221 225 225 217 211 212 212 211 211 212 214 217 216 216 219 220 219 219 218 216 215 215 215 213 211 212 214 216 217 218
111 111 96 85 26 14 25 356 48 93 263 270 303 354 69 104 236 36 46 59 55 40 42 33 28 34 37 40 41 43 44 43 44 46 47 46 45 39 36 35 35 31 18 12 19 18 7 354 328 306 294 289 280 271 266 254 234 223 226 234 240 238 230 222 211 206 216 232 246 247 232 217 216 217 212 211 212 212 215 215 214 214 212 210 211 213 214 214 214 214 213 212 214 216 220 221 219
98 109 119 120 62 32 49 313 46 142 234 279 329 360 65 86 114 43 45 66 65 67 65 47 39 41 41 40 38 39 40 37 37 37 37 40 38 35 32 27 27 30 24 17 14 8 4 1 353 338 319 305 295 285 279 273 261 243 235 238 241 242 241 235 227 220 221 227 237 247 243 229 220 218 215 213 214 214 214 213 210 207 205 205 206 210 214 214 213 212 212 214 216 218 221 222 222
138 137 142 142 128 120 160 259 287 202 227 306 336 12 84 93 89 54 58 85 81 76 69 55 49 48 43 42 41 41 40 36 33 32 32 33 30 31 31 28 28 28 26 24 19 11 3 353 346 339 328 313 299 290 283 275 268 258 250 250 246 240 239 237 233 231 229 229 232 238 240 234 226 221 217 216 216 215 214 210 206 204 203 204 205 208 213 216 216 215 215 216 217 218 221 223 226
158 153 136 147 155 142 170 195 168 179 178 335 344 35 132 193 140 350 50 103 90 75 69 61 58 51 45 45 40 36 36 32 30 30 31 27 25 28 28 26 27 28 28 27 24 20 11 358 343 329 320 313 304 296 287 276 266 259 253 252 250 243 241 244 244 240 237 238 239 236 234 234 231 225 219 219 217 213 210 206 203 203 204 205 206 208 213 218 221 221 220 220 219 219 221 224 226
177 136 105 155 187 137 126 175 161 151 119 5 341 77 188 222 176 252 215 108 91 81 77 70 62 52 48 46 39 33 30 28 26 25 24 21 21 24 25 23 21 24 27 25 22 19 12 2 349 330 315 306 299 297 298 292 274 261 257 253 252 249 246 247 248 245 242 243 243 239 235 234 233 228 222 219 215 209 206 204 203 205 206 208 209 212 216 218 220 221 222 222 221 220 221 224 226
127 124 151 204 178 117 117 155 71 92 111 43 308 183 96 355 219 267 107 115 103 91 82 73 61 53 49 43 38 32 27 30 28 24 20 17 18 22 22 21 19 21 24 22 19 17 12 3 353 342 330 317 308 305 310 306 288 274 267 254 249 250 251 248 246 244 241 243 245 243 242 238 235 232 225 218 210 207 206 206 207 208 209 211 212 214 219 219 217 217 219 220 221 222 223 225 226
125 154 185 178 93 89 109 123 34 49 107 287 317 142 135 152 218 264 180 142 117 97 84 74 57 51 49 40 37 30 23 29 27 23 19 14 16 18 17 16 17 19 19 18 18 16 13 9 3 356 349 342 329 313 297 284 277 271 263 254 246 247 253 255 251 246 241 242 246 246 246 240 236 234 228 217 211 208 208 208 208 209 209 211 213 214 218 220 218 216 218 220 220 220 221 222 224
126 153 153 116 122 135 87 124 136 98 114 208 356 106 168 202 210 227 196 158 126 105 90 78 64 55 47 37 35 27 23 25 21 19 15 10 12 12 12 12 12 15 15 13 15 15 13 11 9 4 359 357 349 325 296 278 271 264 259 258 253 249 252 256 258 256 248 244 242 242 244 241 236 233 227 219 213 208 206 208 207 207 209 211 214 215 217 219 220 220 219 219 218 218 219 220 219
55 99 91 59 130 154 147 141 145 131 139 180 150 135 236 225 214 218 181 151 134 123 103 87 76 66 54 44 37 26 23 23 17 18 13 10 11 8 10 11 9 12 13 11 11 10 9 8 7 4 359 356 351 341 329 316 301 280 265 263 267 264 259 258 264 264 257 248 236 231 236 238 235 230 224 220 214 206 205 208 207 207 211 213 215 217 218 220 221 219 219 217 217 218 219 218 215
76 94 103 62 73 115 135 89 76 120 138 154 142 180 252 242 221 224 154 136 132 121 103 89 79 72 62 52 44 29 23 23 20 19 14 11 10 8 8 8 11 15 13 12 10 6 6 5 3 2 358 354 350 346 345 341 334 315 283 263 262 266 262 255 255 256 254 251 242 235 235 235 232 228 222 219 213 206 206 210 210 209 212 214 217 217 218 219 219 217 217 217 218 218 217 215 212
134 140 162 154 122 114 119 96 14 100 122 158 155 181 254 268 173 99 94 110 113 108 102 91 78 71 63 53 46 36 28 25 20 17 14 11 8 5 3 4 8 11 9 8 8 5 5 4 2 1 358 355 351 350 350 346 343 336 304 273 262 263 265 261 254 251 250 248 242 239 237 233 229 224 222 219 214 209 209 211 211 211 212 214 217 217 215 217 217 216 216 216 218 217 215 213 211
Height
777 777 777 777 777 777 779 779 790 798 801 808 807 803 790 781 780 777 774 770 769 763 757 757 756 755 756 758 761 763 765 766 769 778 777 764 761 762 762 763 765 768 771 774 776 779 781 783 784 786 787 788 790 791 793 795 796 797 798 799 800 801 802 803 804 805 805 806 807 808 808 808 809 810 812 812 813 813 814 815 817 818 819 821 821 822 822 823 823 824 824 825 825 825 826 827 828
776 778 777 778 777 778 783 783 797 808 806 808 804 798 786 781 783 775 772 769 767 761 757 758 756 755 756 755 756 760 763 763 763 765 764 762 763 764 764 765 766 769 772 775 777 779 781 783 785 787 788 789 790 792 794 796 797 798 799 800 801 803 804 805 805 806 807 808 809 810 810 810 811 812 813 814 814 814 815 816 817 819 820 821 822 823 823 824 824 825 826 826 826 827 827 828 829
777 778 777 778 778 779 784 786 800 813 810 805 797 792 785 780 776 770 770 767 764 761 760 759 755 755 756 758 758 761 763 762 761 762 763 763 763 764 765 766 768 770 773 775 777 779 782 784 786 787 789 790 791 793 796 797 799 800 800 801 803 804 805 806 807 808 809 810 811 811 812 812 813 814 814 815 815 816 816 817 818 819 821 822 823 824 824 825 826 826 827 827 828 828 829 829 830
777 777 777 777 780 782 787 793 802 808 808 807 794 782 780 774 768 768 768 764 761 761 762 761 760 757 757 763 763 764 765 762 760 761 763 762 762 764 765 768 769 771 774 776 778 780 782 784 786 788 790 791 793 795 797 799 800 801 802 803 804 805 806 808 809 810 811 812 812 812 813 814 814 815 816 816 817 817 818 818 819 820 821 823 823 824 825 826 827 827 828 829 829 829 830 830 831
777 777 778 777 783 785 790 800 807 805 798 799 787 772 773 769 767 770 768 763 759 759 761 762 765 761 759 763 764 765 764 762 760 760 761 762 763 765 767 769 770 773 775 777 779 782 783 785 787 789 791 793 795 796 798 800 801 803 803 804 805 807 808 809 810 811 812 813 813 813 814 815 815 816 817 817 818 818 819 819 820 821 822 823 824 825 826 827 827 828 829 830 830 831 831 832 832
777 778 778 777 783 784 792 803 807 804 790 789 783 768 768 769 770 771 767 762 757 758 759 760 764 762 763 763 761 763 762 762 761 760 761 763 765 767 769 770 772 774 775 778 780 783 785 787 788 790 792 794 796 798 800 801 802 804 805 806 807 808 809 811 812 812 813 814 814 814 815 816 816 817 818 818 819 820 820 821 821 822 822 823 824 825 826 827 828 829 830 831 832 832 832 833 833
777 778 780 781 785 786 797 804 802 801 787 783 781 768 767 770 770 770 768 764 758 758 758 760 761 761 766 764 761 762 759 760 760 761 762 764 767 768 771 772 774 776 777 780 781 784 786 788 789 791 793 795 797 799 801 802 804 805 806 807 808 809 811 812 812 813 814 815 815 816 816 817 817 818 819 820 820 821 822 822 822 823 823 824 825 826 827 827 829 830 831 832 833 833 833 834 834
777 780 783 786 792 795 802 804 800 799 786 780 778 770 768 767 768 769 770 768 763 760 760 760 760 763 766 763 765 763 759 761 760 762 763 766 768 771 773 774 775 778 780 782 783 785 787 789 790 792 794 796 798 799 801 803 805 806 807 808 809 810 811 813 813 814 815 815 816 817 817 818 818 819 820 821 822 822 823 823 824 824 824 825 825 826 827 828 830 831 832 833 833 834 834 835 836
777 781 785 789 796 800 803 803 798 794 785 779 776 770 766 765 767 769 769 768 764 761 761 760 760 765 767 766 769 764 762 763 762 763 765 768 770 773 775 776 777 779 782 784 785 787 788 790 791 793 795 797 798 800 802 804 806 807 808 809 810 811 812 813 814 814 815 816 818 818 818 819 819 820 821 822 823 823 824 824 825 825 825 826 826 827 828 829 831 832 833 834 834 835 835 836 837
779 782 786 792 798 802 805 802 796 789 782 778 773 768 765 763 765 766 766 766 763 761 761 759 760 766 768 771 771 767 766 766 764 766 768 770 772 774 776 778 779 780 783 784 786 788 789 791 792 794 796 798 799 801 803 804 806 808 809 810 811 812 812 813 814 815 816 818 819 819 820 820 821 821 822 823 824 824 825 825 826 826 826 827 827 828 829 831 832 833 834 834 835 835 836 837 838
783 784 786 794 801 803 803 800 793 786 780 777 771 763 760 760 763 765 764 764 762 762 761 759 763 766 770 773 772 769 768 768 767 768 769 772 773 775 777 779 781 782 783 784 786 788 790 792 793 795 796 798 800 802 803 805 806 807 809 810 811 812 813 813 814 816 817 819 820 820 821 821 822 823 824 825 825 826 826 827 827 827 827 828 828 829 831 832 833 833 834 835 835 836 837 838 839
785 788 788 797 802 801 800 798 792 785 780 777 767 758 758 759 761 760 760 762 761 763 761 760 761 763 771 775 772 770 769 770 770 770 772 773 774 776 778 779 781 783 784 785 787 788 791 793 794 796 797 799 800 802 803 805 806 807 808 809 811 812 813 814 815 817 818 819 820 821 822 823 824 824 825 826 826 827 828 828 828 829 829 829 829 830 832 833 834 834 835 835 836 837 838 839 839
784 789 789 796 800 798 798 797 791 788 782 773 765 758 758 758 757 755 757 760 761 765 762 758 759 760 771 775 771 771 771 772 772 772 774 774 776 777 779 781 782 784 785 786 788 789 791 793 795 796 798 799 801 802 803 805 806 807 808 810 811 813 814 815 816 818 819 820 821 822 822 823 824 825 826 827 828 829 829 829 830 830 830 831 831 831 833 834 835 835 835 836 837 838 838 839 840
782 786 787 794 801 798 795 793 788 789 782 769 765 760 757 756 755 754 755 760 762 763 759 755 757 761 769 773 772 772 772 772 773 774 775 776 778 779 781 782 784 785 786 787 788 790 792 793 795 796 798 800 801 803 804 805 806 808 810 811 813 814 815 816 817 819 820 821 822 822 823 824 825 826 827 828 829 830 831 831 831 831 832 832 832 833 834 835 836 836 836 837 838 838 839 840 840
780 784 786 792 799 797 792 790 787 790 781 767 765 761 756 755 754 755 755 760 763 758 756 756 756 762 769 770 771 771 771 772 774 775 777 778 780 781 783 784 785 786 787 788 789 790 792 794 795 797 798 800 802 803 805 807 808 809 811 813 814 815 816 817 819 820 821 822 822 823 824 825 826 827 828 829 830 831 832 832 833 833 833 834 834 834 835 836 836 836 837 838 839 839 840 840 841
779 782 788 794 797 797 793 790 789 790 779 765 764 761 759 757 753 756 754 756 761 757 758 760 758 763 767 766 766 767 770 773 774 776 778 780 781 783 784 785 786 786 787 788 790 791 792 794 796 797 799 801 803 805 806 808 810 811 813 814 815 816 817 818 819 820 821 822 823 824 825 826 827 827 828 829 830 831 833 833 834 834 835 835 835 836 836 837 837 837 838 839 840 840 840 841 842
778 782 792 797 797 797 790 787 786 783 773 764 763 763 765 762 755 754 752 753 759 760 760 762 761 761 763 762 762 764 769 773 775 777 779 781 782 783 784 784 785 786 788 789 791 793 794 796 797 799 801 803 805 806 808 810 812 813 814 815 816 817 818 819 820 820 821 822 823 824 826 826 827 828 829 830 830 831 833 834 835 835 836 836 837 837 838 838 838 838 839 839 840 841 842 842 843
780 788 796 797 796 791 783 780 777 774 771 766 763 765 767 764 759 754 754 758 760 761 762 763 763 762 761 761 762 765 769 774 777 779 780 782 783 782 782 782 784 787 790 792 794 796 797 799 800 802 803 805 806 808 810 811 813 814 815 816 817 818 819 820 820 821 821 822 823 824 825 826 827 828 829 830 831 831 833 835 835 836 837 837 838 838 839 839 839 840 840 840 840 841 842 843 844
782 790 795 792 788 781 775 773 772 771 770 766 764 765 763 761 759 755 758 766 764 765 766 766 767 766 764 764 766 769 772 776 779 781 781 782 781 779 779 782 787 791 793 795 796 798 800 802 803 804 805 807 808 809 810 812 813 814 815 817 818 819 819 820 820 821 822 822 822 823 825 826 827 828 829 830 831 832 833 835 836 836 837 838 838 839 840 839 840 841 841 841 841 841 842 843 845
781 787 792 786 779 776 772 772 770 769 768 767 765 764 763 758 756 755 760 766 766 767 767 766 770 770 769 769 770 772 775 778 779 779 779 777 776 777 781 785 788 791 794 796 797 798 800 802 804 805 806 807 808 809 811 812 813 814 815 817 818 819 820 820 821 822 822 822 823 823 825 826 827 828 829 830 832 832 833 835 836 836 837 837 839 839 840 840 841 841 842 842 841 842 843 844 845
780 783 786 780 777 776 770 769 768 766 768 768 765 764 763 758 756 757 759 766 767 764 761 761 766 769 770 771 773 774 775 776 777 776 775 775 777 780 782 783 785 787 791 794 797 799 800 801 802 804 805 806 808 809 810 812 813 814 816 817 818 820 820 821 822 822 823 823 823 824 825 826 827 827 829 830 831 832 833 834 836 836 837 837 838 840 841 841 841 842 842 843 842 842 843 844 846
779 780 779 775 776 775 767 766 766 765 768 768 767 765 761 758 758 758 759 764 764 759 757 758 761 765 768 770 772 773 774 774 774 774 775 777 779 779 779 781 784 786 787 790 794 797 798 798 800 802 804 806 807 809 810 812 814 815 816 818 819 820 820 821 822 823 824 824 824 825 825 826 827 827 828 830 831 832 833 834 835 836 836 837 838 840 841 842 842 842 843 843 843 843 844 845 846
779 778 775 772 773 771 765 764 763 764 767 767 768 765 761 760 760 761 760 759 759 756 756 757 760 764 766 768 770 771 772 772 771 772 774 776 776 776 779 783 784 783 781 780 784 788 791 794 796 799 803 805 807 809 811 813 814 815 816 818 819 820 821 822 823 823 824 825 825 825 826 826 827 827 828 830 831 832 833 834 835 836 836 837 838 839 841 842 842 843 843 844 844 844 844 845 847
778 778 774 771 771 768 765 763 762 763 765 764 764 764 763 762 761 763 761 756 757 758 756 757 761 764 766 768 770 770 770 770 770 773 774 774 775 777 781 783 782 781 780 779 779 782 787 792 794 798 802 805 807 809 811 812 813 815 816 818 819 820 821 822 823 824 825 825 825 825 826 826 826 827 829 830 831 831 833 834 835 836 836 836 837 839 841 842 842 843 844 844 845 845 845 846 847
777 777 773 770 769 766 764 764 763 763 763 762 763 763 761 762 762 763 761 757 758 759 758 759 762 764 767 769 769 769 769 770 772 774 776 777 779 781 782 783 782 782 781 781 781 783 787 792 795 797 800 804 806 808 810 811 812 813 815 817 819 820 820 821 822 823 824 824 825 825 826 826 826 827 829 829 830 831 833 834 835 836 836 836 837 838 840 841 842 843 844 845 845 846 846 846 847
773 772 771 769 767 764 764 764 761 763 763 761 764 763 759 761 762 761 759 760 760 760 761 762 763 766 769 769 769 768 768 770 773 775 777 780 782 784 784 784 783 782 781 782 783 786 788 791 794 795 797 800 803 807 810 812 813 813 814 816 818 819 820 820 821 822 823 824 825 826 826 826 827 828 829 829 830 831 832 833 835 835 836 836 836 838 839 840 842 843 844 845 845 846 846 847 848
767 768 769 768 767 764 765 764 761 764 762 761 764 763 761 761 763 762 760 761 761 762 765 764 765 768 768 769 768 767 769 772 775 777 780 784 786 789 789 788 787 785 784 785 786 788 790 791 792 793 795 797 799 802 805 809 813 815 815 816 817 819 820 821 821 822 822 823 825 826 826 827 827 828 829 829 830 831 832 833 834 835 835 836 836 837 838 839 841 842 844 844 845 846 846 847 848
765 767 768 767 767 765 765 763 762 764 761 759 761 763 763 763 764 763 760 762 762 762 766 767 767 768 768 768 768 768 771 775 777 779 782 785 787 789 790 791 793 794 794 793 792 790 791 792 792 793 794 796 797 798 802 807 812 814 814 813 814 816 818 820 822 822 822 822 824 825 826 827 828 829 829 830 831 831 832 833 834 835 835 835 836 836 837 839 840 842 843 844 845 845 846 847 848
765 766 769 768 765 764 762 760 761 763 760 756 760 767 768 765 764 762 761 763 762 764 767 768 768 768 768 768 768 770 773 776 778 780 782 782 783 784 785 788 790 791 794 795 794 792 790 791 792 793 795 796 797 799 803 807 811 812 811 810 811 812 816 819 821 822 822 821 822 825 826 827 828 829 829 830 831 832 832 833 834 835 835 835 836 836 837 838 840 842 843 844 844 845 846 847 848
766 767 769 770 771 768 761 761 761 761 761 754 760 774 771 766 764 759 761 764 763 766 768 768 769 768 769 768 769 772 774 776 779 780 780 781 782 783 783 783 782 783 787 790 792 793 792 791 792 792 794 797 798 800 804 807 810 811 811 811 811 812 814 817 819 821 821 821 822 823 825 826 827 828 829 830 831 832 832 833 834 835 835 835 836 836 837 838 840 842 842 843 844 845 846 847 848
768 770 773 778 781 772 760 761 762 760 760 754 759 774 770 766 764 757 759 762 762 766 768 768 769 768 769 768 770 773 775 776 778 779 779 780 780 781 781 781 782 783 786 789 791 793 792 791 791 790 790 792 795 799 803 805 807 809 810 810 811 813 814 815 817 819 820 821 821 822 824 825 826 827 828 829 831 831 832 832 834 835 835 836 836 836 837 838 840 841 842 843 844 845 846 847 848
772 775 780 785 783 774 763 761 762 760 760 756 761 774 771 764 763 758 759 762 761 765 767 768 768 768 769 770 772 774 776 777 776 777 778 779 779 780 781 782 784 786 788 790 791 791 791 790 790 790 790 792 795 798 799 800 801 803 804 806 808 810 811 812 815 818 819 820 821 822 822 824 825 826 827 828 830 831 831 832 834 835 835 836 836 837 838 839 840 841 842 843 844 845 846 847 848
778 778 781 784 781 777 769 761 761 760 760 759 762 771 770 764 761 759 759 761 762 765 767 769 769 770 770 771 773 774 777 778 776 776 778 779 780 781 783 784 787 789 790 790 789 788 788 788 789 791 794 798 798 797 796 796 798 800 800 801 804 806 808 810 813 817 819 820 820 821 822 822 823 824 826 828 829 831 831 832 834 835 835 836 837 837 838 839 840 841 842 843 844 845 846 847 848
782 781 780 783 784 782 775 765 761 759 760 762 762 766 767 764 762 762 762 763 765 767 769 772 772 772 772 771 773 776 778 778 776 776 778 780 781 784 787 789 790 790 790 789 788 788 788 789 791 793 796 798 797 795 795 798 800 801 800 799 800 803 806 808 811 815 818 819 820 821 822 822 823 824 826 827 828 830 831 832 834 834 835 836 837 838 838 839 839 840 841 842 844 845 846 847 847
780 780 779 784 785 783 779 769 761 760 761 764 765 767 768 768 767 768 769 768 769 772 772 774 775 774 773 773 774 777 778 777 776 776 779 781 783 786 788 789 790 790 790 790 791 791 791 792 793 795 797 796 796 797 798 800 801 801 801 800 799 801 803 805 810 814 817 819 821 822 823 823 823 824 825 827 828 829 830 832 833 834 834 835 837 838 838 839 839 840 841 842 843 845 846 846 847
773 776 777 782 784 781 778 770 761 763 766 768 767 767 774 780 779 777 775 771 772 774 774 775 777 777 777 777 777 778 778 776 775 777 780 782 783 784 784 785 787 789 790 791 791 791 791 792 793 795 796 796 797 798 799 799 798 798 799 800 799 799 801 803 808 813 816 817 819 821 822 822 822 823 824 825 826 827 829 831 832 833 834 835 836 837 838 838 839 839 841 842 843 845 846 847 847
772 775 778 783 784 778 774 767 761 762 767 771 771 775 786 790 787 785 779 775 777 779 776 776 777 778 779 780 779 778 777 776 777 779 781 782 783 782 783 785 786 788 788 789 790 790 790 791 792 794 795 796 797 798 798 797 797 798 797 797 797 798 800 802 807 812 814 814 816 819 820 820 821 822 823 824 825 826 828 829 832 833 834 835 835 836 837 838 839 839 840 842 843 844 846 847 848
771 775 777 782 784 777 769 765 764 763 765 773 777 783 793 792 789 788 781 779 785 785 782 780 779 778 779 780 781 779 777 778 779 779 781 782 782 782 783 785 786 788 789 789 789 789 790 790 790 793 795 796 797 797 797 798 799 800 799 798 796 796 799 802 806 810 810 811 813 817 818 819 820 821 823 824 825 827 828 830 832 833 833 834 835 836 837 837 838 839 839 841 843 844 845 846 848
772 776 777 779 782 777 769 764 766 765 764 774 781 786 794 793 789 788 785 786 789 788 787 786 784 781 780 779 780 780 779 779 780 780 781 782 782 783 783 785 786 788 789 789 789 788 788 788 789 791 793 794 795 796 796 796 798 800 802 801 800 798 799 803 806 807 807 808 812 815 818 819 819 820 821 823 825 826 827 829 831 832 833 833 834 835 836 837 837 838 839 840 842 843 845 846 848
774 776 777 779 780 779 771 764 766 768 769 777 780 785 794 794 789 787 788 790 789 787 788 787 786 785 782 780 778 779 779 780 782 782 782 783 783 784 784 784 786 788 788 789 789 789 790 790 790 790 790 792 793 793 794 795 797 799 801 802 803 803 802 804 805 805 806 808 812 815 818 819 818 818 820 821 823 825 825 826 830 832 832 832 833 834 834 835 836 837 838 839 840 842 844 846 848
777 775 774 775 774 775 773 767 766 768 774 777 774 782 797 799 796 793 791 791 789 787 787 786 788 788 785 783 781 780 780 781 782 782 783 784 783 783 784 784 786 787 787 788 789 791 791 791 791 790 790 790 791 793 793 794 795 797 799 800 802 804 804 804 805 804 805 808 810 812 815 816 816 817 818 820 822 823 824 826 829 831 831 831 832 832 833 833 834 835 836 837 838 839 842 844 847
777 774 771 769 768 771 772 772 773 771 775 777 772 785 808 808 801 799 796 795 795 791 789 790 790 790 789 788 786 785 784 784 784 783 783 783 782 783 783 783 785 786 787 788 789 791 791 790 790 790 791 791 792 792 792 792 794 795 795 796 797 800 802 802 803 802 803 805 806 808 810 812 813 815 817 819 820 822 823 825 828 829 829 830 830 831 831 832 833 834 835 836 837 838 840 842 845
776 769 765 765 768 771 770 771 774 772 775 780 776 783 807 814 804 801 800 800 800 795 793 794 792 792 792 791 789 787 786 785 785 785 785 784 784 785 785 785 786 787 788 789 790 791 791 790 790 791 791 791 791 790 791 791 792 792 791 791 793 796 799 800 801 801 802 804 805 806 808 809 810 812 814 818 820 821 822 824 825 826 827 828 829 829 830 831 832 833 835 836 837 838 839 841 843
772 764 763 767 769 770 769 768 770 771 772 776 777 776 792 811 809 802 802 801 800 799 798 797 794 794 793 792 791 789 787 787 786 786 787 787 787 787 787 787 788 788 788 789 789 790 790 790 790 790 791 791 790 789 789 790 791 791 790 790 791 795 797 799 800 801 802 804 805 805 807 808 810 812 814 817 819 820 821 821 822 823 825 826 827 828 828 829 831 832 834 835 836 837 838 840 842
763 762 766 767 766 767 767 768 768 776 776 771 777 779 783 807 813 803 803 803 802 805 803 801 799 796 795 793 792 790 789 789 788 789 789 789 790 790 789 789 789 789 788 788 788 788 788 788 789 790 790 790 790 789 788 788 789 790 790 790 791 794 796 798 799 801 802 803 805 806 807 808 811 813 815 816 818 818 819 819 820 821 822 824 825 827 827 828 829 831 832 834 835 837 838 839 841
759 763 768 767 770 774 774 773 768 775 782 775 782 787 784 804 818 809 806 808 808 810 807 804 802 799 797 796 794 793 792 791 791 792 792 792 793 792 792 792 791 790 789 789 789 789 788 788 789 789 789 789 790 790 789 788 789 790 791 791 792 793 795 797 798 800 801 802 804 805 806 808 810 812 814 815 816 817 817 818 818 819 820 822 823 825 826 827 828 829 831 832 834 836 837 839 841
757 761 765 767 772 775 777 778 772 777 787 785 794 798 785 797 815 813 810 811 811 811 809 807 803 802 801 799 798 797 796 795 794 794 794 795 795 795 794 794 794 793 794 794 793 792 791 790 790 789 789 789 789 790 790 790 790 791 792 792 793 794 794 796 798 800 801 803 804 805 806 807 808 810 811 812 814 815 815 816 816 817 818 820 821 823 825 826 827 828 830 832 833 835 837 838 840
757 757 763 771 778 778 779 781 779 786 794 794 804 804 788 796 813 814 810 810 811 811 811 809 806 805 804 802 801 800 799 799 798 797 798 797 797 797 797 796 796 795 796 797 796 795 794 793 792 791 791 791 790 791 791 791 791 791 791 793 794 795 796 797 798 800 800 801 803 805 806 806 806 808 809 810 811 812 813 814 815 816 817 818 820 822 824 825 826 828 829 830 832 834 836 837 839
758 760 766 777 787 790 790 792 792 793 795 800 807 801 796 807 814 812 811 810 810 809 809 809 809 808 807 805 805 804 803 802 801 801 800 800 800 800 799 798 798 797 798 798 797 796 796 794 793 793 792 792 791 791 792 792 791 791 791 792 793 795 796 797 798 799 799 799 799 802 805 806 805 806 806 807 809 810 811 812 812 814 815 817 819 821 823 824 826 827 828 830 831 833 835 836 838
760 763 767 777 790 797 802 810 809 801 797 804 807 798 803 815 813 810 812 811 809 808 808 809 810 811 810 809 808 807 807 806 805 805 804 803 803 802 802 801 800 800 799 799 798 797 796 795 794 793 792 792 792 792 792 792 793 792 792 793 793 794 794 794 795 796 797 798 798 798 802 805 804 804 804 805 807 808 809 810 811 812 814 816 818 820 822 823 825 826 827 829 831 832 834 835 836
759 759 762 769 777 784 795 802 799 797 801 807 806 802 809 817 814 810 810 808 808 807 808 810 811 812 811 810 810 809 810 809 808 808 807 807 806 804 803 803 802 802 801 799 798 797 796 795 794 793 792 792 792 792 792 793 793 793 794 794 794 793 792 792 793 794 794 795 797 797 798 802 803 802 803 804 805 806 807 809 810 811 813 815 817 819 821 822 824 825 827 828 830 831 833 834 835
763 760 763 767 762 766 788 800 796 797 805 810 812 813 813 813 811 809 808 808 809 809 810 812 813 814 813 812 814 813 813 813 812 811 811 810 809 807 806 805 805 803 802 800 799 798 797 795 794 793 792 791 792 792 793 793 793 794 795 796 796 794 792 790 790 791 791 792 795 796 797 799 800 801 802 803 804 805 807 808 809 811 812 814 816 818 820 822 823 825 826 827 829 830 832 833 834
762 763 762 764 758 758 780 803 808 803 804 815 823 819 814 814 811 808 807 809 811 812 813 815 815 815 816 817 818 818 817 816 816 815 815 813 811 810 809 808 807 805 803 802 800 798 797 796 795 793 792 791 792 792 793 793 791 792 793 794 795 795 792 789 788 789 789 791 793 795 796 797 799 800 801 802 804 805 806 807 808 810 811 813 815 817 819 821 822 824 825 826 828 829 830 831 832
753 759 756 759 762 762 769 788 804 806 809 822 826 818 816 820 816 810 808 810 812 814 815 817 818 818 820 821 821 821 820 818 818 818 817 816 814 813 812 811 809 807 805 803 802 800 799 799 797 795 793 792 792 792 791 790 788 789 792 793 793 793 791 789 789 788 790 791 792 794 795 796 797 799 801 802 803 803 804 806 807 809 810 812 814 816 818 820 821 823 824 825 827 828 829 830 831
738 743 747 753 762 768 772 783 795 804 818 828 822 819 820 819 814 810 809 810 811 815 817 818 821 822 824 825 824 823 822 821 821 821 819 818 817 816 814 813 811 809 806 804 802 801 800 800 798 797 795 793 792 791 789 787 786 788 791 793 793 791 789 789 790 791 793 792 791 792 793 795 796 798 800 801 802 802 803 805 806 808 809 811 813 815 817 819 820 822 823 824 825 826 828 829 830
739 742 748 752 757 763 770 779 784 793 818 831 823 821 820 811 809 808 806 809 811 814 817 820 823 826 827 828 828 827 826 826 825 824 823 821 820 819 817 815 813 810 808 806 803 802 801 800 799 798 796 794 792 790 789 788 788 788 789 791 792 791 788 788 789 791 791 791 790 790 791 794 795 797 798 799 801 802 803 804 806 807 809 810 812 814 816 818 820 821 822 823 825 825 827 828 829
746 749 753 756 761 764 767 779 786 789 809 828 828 824 817 807 807 807 804 807 811 813 818 822 826 828 829 830 830 830 829 828 827 826 825 824 822 821 819 817 815 812 810 807 806 805 804 802 801 799 797 795 793 791 790 789 788 788 789 790 790 789 788 787 786 786 787 789 791 791 791 793 794 796 797 798 800 801 802 804 805 807 808 810 811 813 815 817 819 820 822 823 824 825 826 827 828
743 746 750 756 760 763 769 783 794 792 799 814 816 816 816 811 807 806 806 808 811 815 819 824 827 829 830 831 830 831 830 829 829 828 827 826 824 822 820 817 815 813 811 809 808 807 806 804 803 801 799 797 794 792 790 789 789 788 788 787 787 787 788 788 788 788 788 789 791 791 792 792 793 794 795 797 798 800 801 803 804 806 807 809 810 812 814 816 818 820 821 822 823 824 825 826 827